Weather reports worldwide

Advertisment
Elphin, United Kingdom (99153): temperature & dewpoint: 19.09.2018 22:00:00 - 25.09.2018 22:00:00 (BST)Elphin, United Kingdom (99153): precipitation: 19.09.2018 22:00:00 - 25.09.2018 22:00:00 (BST)
Date & Time tt [°C] td [°C] rr [mm]
25.09.2018 22:00:00 14,5 13,1 0,4
25.09.2018 21:00:00 13,5 12,2 0,6
25.09.2018 20:00:00 13,8 11,6 0,0
25.09.2018 19:00:00 14,2 10,9 0,0
25.09.2018 18:00:00 14,2 10,2 0,0
25.09.2018 17:00:00 14,6 9,8 0,0
25.09.2018 16:00:00 14,1 9,5 0,0
25.09.2018 15:00:00 13,7 9,2 0,2
25.09.2018 14:00:00 12,0 8,9 0,6
25.09.2018 13:00:00 12,5 7,2 0,0
25.09.2018 12:00:00 11,8 5,3 0,0
25.09.2018 11:00:00 11,6 3,8 0,0
25.09.2018 10:00:00 10,3 5,3 0,0
25.09.2018 09:00:00 9,8 4,9 0,0
25.09.2018 08:00:00 8,8 5,1 0,0
25.09.2018 07:00:00 8,7 5,2 0,0
25.09.2018 06:00:00 8,6 4,8 0,0
25.09.2018 05:00:00 9,1 5,7 0,0
25.09.2018 04:00:00 9,4 6,0 0,0
25.09.2018 03:00:00 9,6 6,2 0,0
25.09.2018 02:00:00 10,2 6,9 0,0
25.09.2018 01:00:00 10,4 7,6 0,2
25.09.2018 00:00:00 10,5 7,5 0,0
24.09.2018 23:00:00 10,3 7,4 0,0
24.09.2018 22:00:00 9,5 7,8 0,0
24.09.2018 21:00:00 9,5 7,4 1,4
24.09.2018 20:00:00 9,2 7,7 0,6
24.09.2018 19:00:00 9,9 7,0 0,0
24.09.2018 18:00:00 10,2 6,8 0,0
24.09.2018 17:00:00 9,4 6,8 0,0
24.09.2018 16:00:00 11,3 7,0 0,0
24.09.2018 15:00:00 11,0 5,6 0,0
24.09.2018 14:00:00 10,7 5,9 0,2
24.09.2018 13:00:00 10,5 4,8 0,0
24.09.2018 12:00:00 10,3 5,0 0,0
24.09.2018 11:00:00 9,5 4,4 0,0
24.09.2018 10:00:00 9,3 5,5 0,0
24.09.2018 09:00:00 8,2 4,7 0,0
24.09.2018 08:00:00 7,5 4,6 0,0
24.09.2018 07:00:00 7,8 5,6 0,0
24.09.2018 06:00:00 7,2 4,6 0,0
24.09.2018 05:00:00 7,0 6,0 0,2
24.09.2018 04:00:00 6,8 5,1 1,0
24.09.2018 03:00:00 7,4 5,7 0,6
24.09.2018 02:00:00 7,6 5,6 0,6
24.09.2018 01:00:00 8,1 4,5 0,0
24.09.2018 00:00:00 7,6 3,2 0,0
23.09.2018 23:00:00 8,3 5,0 0,0
23.09.2018 22:00:00 7,9 3,9 0,0
23.09.2018 21:00:00 7,1 4,4 0,0
23.09.2018 20:00:00 7,4 3,2 0,0
23.09.2018 19:00:00 7,6 4,2 0,0
23.09.2018 18:00:00 7,5 4,6 0,6
23.09.2018 17:00:00 8,4 4,3 0,0
23.09.2018 16:00:00 9,0 7,5 0,4
23.09.2018 15:00:00 9,0 5,0 0,0
23.09.2018 14:00:00 7,4 4,5 0,0
23.09.2018 13:00:00 9,3 5,5 0,2
23.09.2018 12:00:00 6,8 5,8 0,6
23.09.2018 11:00:00 7,5 5,8 1,4
23.09.2018 10:00:00 6,2 5,2 1,6
23.09.2018 09:00:00 6,5 6,1 1,4
23.09.2018 08:00:00 5,0 4,7 1,8
23.09.2018 07:00:00 3,5 3,0 0,2
23.09.2018 06:00:00 3,9 3,1 1,2
23.09.2018 05:00:00 5,2 4,7 0,8
23.09.2018 04:00:00 4,6 4,2 0,2
23.09.2018 03:00:00 4,2 3,4 1,4
23.09.2018 02:00:00 5,5 4,9 0,6
23.09.2018 01:00:00 5,0 4,0 0,2
23.09.2018 00:00:00 5,5 4,4 1,6
22.09.2018 23:00:00 6,3 5,3 1,4
22.09.2018 22:00:00 6,6 5,5 1,4
22.09.2018 21:00:00 7,3 5,3 0,2
22.09.2018 20:00:00 7,5 4,5 0,0
22.09.2018 19:00:00 7,7 4,4 0,0
22.09.2018 18:00:00 8,2 5,9 0,0
22.09.2018 17:00:00 8,2 6,6 0,8
22.09.2018 16:00:00 9,9 6,0 0,0
22.09.2018 15:00:00 10,3 6,9 0,0
22.09.2018 14:00:00 9,6 7,0 0,8
22.09.2018 13:00:00 9,4 5,5 0,0
22.09.2018 12:00:00 9,4 5,7 0,0
22.09.2018 11:00:00 9,6 7,5 0,0
22.09.2018 10:00:00 8,1 6,7 0,4
22.09.2018 09:00:00 8,6 7,4 1,8
22.09.2018 08:00:00 8,3 7,5 0,8
22.09.2018 07:00:00 8,4 7,5 1,0
22.09.2018 06:00:00 8,0 7,2 2,8
22.09.2018 05:00:00 7,7 5,7 0,4
22.09.2018 04:00:00 8,4 5,1 0,0
22.09.2018 03:00:00 8,4 4,8 0,2
22.09.2018 02:00:00 8,5 4,9 0,0
22.09.2018 01:00:00 8,7 4,9 0,0
22.09.2018 00:00:00 8,4 5,7 0,0
21.09.2018 23:00:00 8,6 4,5 0,0
21.09.2018 22:00:00 8,0 3,8 0,0
21.09.2018 21:00:00 7,3 6,0 0,8
21.09.2018 20:00:00 8,1 5,7 1,2
21.09.2018 19:00:00 8,1 5,9 0,0
21.09.2018 18:00:00 9,3 6,3 0,2
21.09.2018 17:00:00 10,3 8,3 1,0
21.09.2018 16:00:00 10,1 5,4 0,0
21.09.2018 15:00:00 10,2 6,4 0,6
21.09.2018 14:00:00 9,7 5,4 0,0
21.09.2018 13:00:00 9,2 3,7 0,0
21.09.2018 12:00:00 8,7 4,9 0,0
21.09.2018 11:00:00 8,6 5,3 0,0
21.09.2018 10:00:00 7,8 6,4 0,4
21.09.2018 09:00:00 7,2 5,4 1,0
21.09.2018 08:00:00 7,1 5,2 0,6
21.09.2018 07:00:00 7,2 6,0 2,6
21.09.2018 06:00:00 8,0 7,1 0,0
21.09.2018 05:00:00 7,9 6,7 0,0
21.09.2018 04:00:00 7,9 6,8 0,6
21.09.2018 03:00:00 7,5 6,9 0,0
21.09.2018 02:00:00 7,2 6,4 0,0
21.09.2018 01:00:00 7,5 7,0 0,2
21.09.2018 00:00:00 7,3 6,8 0,0
20.09.2018 23:00:00 7,5 6,3 0,0
20.09.2018 22:00:00 7,8 6,4 0,0
20.09.2018 21:00:00 8,4 7,2 0,0
20.09.2018 20:00:00 8,3 7,5 0,8
20.09.2018 19:00:00 9,0 8,1 0,6
20.09.2018 18:00:00 8,8 7,6 1,6
20.09.2018 17:00:00 10,2 7,8 0,0
20.09.2018 16:00:00 12,1 8,3 0,0
20.09.2018 15:00:00 11,0 7,5 0,0
20.09.2018 14:00:00 11,3 8,5 0,2
20.09.2018 13:00:00 10,0 8,2 0,0
20.09.2018 12:00:00 10,0 8,3 1,0
20.09.2018 11:00:00 9,3 7,7 1,2
20.09.2018 10:00:00 9,1 7,3 1,8
20.09.2018 09:00:00 9,1 5,6 0,2
20.09.2018 08:00:00 9,4 4,0 0,0
20.09.2018 07:00:00 9,2 5,3 0,0
20.09.2018 06:00:00 8,7 5,9 0,4
20.09.2018 05:00:00 9,3 4,8 0,2
20.09.2018 04:00:00 8,5 6,3 0,8
20.09.2018 03:00:00 9,3 5,9 0,2
20.09.2018 02:00:00 9,2 6,6 0,2
20.09.2018 01:00:00 9,3 6,4 0,2
20.09.2018 00:00:00 9,7 5,9 0,0
19.09.2018 23:00:00 9,2 6,2 0,6
19.09.2018 22:00:00 9,3 6,4 0,4

tt = temperature
td = dewpoint
rr = precipitation

Next stations